Flag for Finland Weather past 2 weeks in Kemi, Finland

Now
25 °F

Snow flurries. Overcast.


Feels Like: 14 °F
Forecast: 17 / 22 °F
Wind: 12 mph from Northeast

Location: Kemi Airport

Current Time: Feb 1, 2015 at 3:19:02 AM

Latest Report: Feb 1, 2015 at 2:50 AM


Visibility: 2 mi

Pressure: 29.33 "Hg

Humidity: 93%

Dew point: 23 °F

Location of KemiLocation

Historic Weather in Kemi — Graph

°F

Kemi temperature yesterday

Maximum temperature yesterday: 28 °F (at 6:50 AM)
Minimum temperature yesterday: 23 °F (at 10:50 AM)
Average temperature yesterday: 25 °F

Past Weeks' High & Low Weather Summary

 TemperatureHumidityPressure
High34 °F (Jan 17, 5:20 AM)100% (Jan 17, 1:20 AM)30.54 "Hg (Jan 17, 1:20 AM)
Low-11 °F (Jan 23, 8:50 AM)77% (Jan 20, 9:20 PM)28.91 "Hg (Jan 17, 1:20 AM)
Average16 °F94%29.74 "Hg
* Reported Jan 17 1:20 AM — Feb 1 1:50 AM, Kemi, Weather by CustomWeather, © 2014

Note: Actual official high and low records may vary slightly from our data, if they occured in-between our weather recording intervals... More about our weather records

Advertising

Kemi weather history for previous 24 hours

 ConditionsComfort  
Time TempWeatherWind HumidityBarometerVisibility
1:50 AM
Feb 1
25 °FSnow flurries. Overcast.10 mph93%29.36 "Hg1 mi
1:20 AM25 °FSnow flurries. Mostly cloudy.9 mph93%29.39 "Hg2 mi
12:50 AM25 °FLight snow. Mostly cloudy.9 mph93%29.42 "HgN/A
12:20 AM25 °FSnow flurries. Mostly cloudy.9 mph93%29.42 "Hg4 mi
11:50 PM
Jan 31
25 °FSprinkles. Passing clouds.10 mph93%29.42 "HgN/A
11:20 PM25 °FPassing clouds.10 mph93%29.42 "HgN/A
10:50 PM25 °FPassing clouds.9 mph93%29.42 "HgN/A
10:20 PM25 °FPassing clouds.8 mph93%29.45 "HgN/A
9:50 PM25 °FPassing clouds.9 mph93%29.45 "HgN/A
9:20 PM25 °FPassing clouds.10 mph93%29.45 "HgN/A
8:50 PM25 °FPassing clouds.10 mph93%29.45 "HgN/A
8:20 PM25 °FPassing clouds.8 mph93%29.45 "HgN/A
7:50 PM25 °FPassing clouds.8 mph93%29.45 "HgN/A
7:20 PM25 °FPassing clouds.8 mph93%29.47 "HgN/A
6:50 PM25 °FPassing clouds.8 mph100%29.45 "HgN/A
6:20 PM25 °FPassing clouds.7 mph100%29.45 "HgN/A
5:50 PM25 °FLow clouds.8 mph100%29.47 "HgN/A
5:20 PM25 °FLow clouds.8 mph100%29.47 "HgN/A
4:50 PM25 °FLow clouds.6 mph100%29.47 "HgN/A
4:20 PM25 °FLow clouds.8 mph100%29.47 "HgN/A
3:50 PM25 °FLow clouds.7 mph100%29.47 "HgN/A
3:20 PM25 °FLow clouds.6 mph100%29.47 "HgN/A
2:50 PM25 °FLow clouds.6 mph100%29.47 "HgN/A
2:20 PM25 °FLow clouds.6 mph100%29.47 "HgN/A
1:50 PM25 °FLow clouds.6 mph93%29.47 "HgN/A
1:20 PM25 °FLow clouds.6 mph93%29.47 "HgN/A
12:50 PM25 °FLow clouds.6 mph100%29.47 "HgN/A
12:20 PM23 °FIce fog.7 mph100%29.47 "Hg0 mi
11:50 AM23 °FLow clouds.5 mph100%29.47 "HgN/A
11:20 AM23 °FPartly sunny.5 mph100%29.47 "HgN/A
10:50 AM23 °FPartly sunny.6 mph100%29.47 "HgN/A
10:20 AM25 °FSunny.3 mph93%29.47 "Hg10 mi
9:50 AM25 °FPassing clouds.5 mph100%29.45 "HgN/A
9:20 AM25 °FOvercast.6 mph100%29.45 "HgN/A
8:50 AM25 °FLow clouds.5 mph100%29.45 "HgN/A
8:20 AM27 °FLight snow. Low clouds.6 mph100%29.42 "HgN/A
7:50 AM27 °FLight snow. Low clouds.6 mph100%29.42 "Hg6 mi
7:20 AM28 °FLight snow. Mostly cloudy.5 mph100%29.39 "HgN/A
6:50 AM28 °FLight snow. Low clouds.5 mph100%29.39 "Hg4 mi
6:20 AM27 °FLight snow. Low clouds.1 mph100%29.39 "Hg6 mi
5:50 AM25 °FLight snow. Low clouds.1 mph100%29.36 "Hg5 mi
4:50 AM25 °FSnow flurries. Low clouds.2 mph100%29.36 "HgN/A
4:20 AM25 °FSnow flurries. Low clouds.2 mph100%29.36 "HgN/A
3:50 AM25 °FSnow flurries. Low clouds.3 mph100%29.33 "HgN/A
3:20 AM25 °FLow clouds.3 mph100%29.33 "HgN/A
Weather by CustomWeather, © 2014

See weather overviewHow to use our weather pages